Preview of NWS' New Version of Forecast
This preview is not operational and should not be used for support decisions.

Regional Weather Roundup (RWR)

Issued by National Weather Service (NWS)

                            
000
ASCA42 TJSJ 181210
RWRPR 
PUERTO RICO/U.S. VIRGIN ISLANDS HOURLY WEATHER ROUNDUP
NATIONAL WEATHER SERVICE SAN JUAN PR
800 AM AST MON MAR 18 2019

PRZ001>002-007>008-010-181300-
PUERTO RICO
  
CITY           SKY/WX    TMP DP  RH WIND       PRES   REMARKS
SAN JUAN LMM   MOSUNNY   77  68  73 SE3       30.03R                  
AGUADILLA      SUNNY     72  66  83 SE3       30.04R                  
$$

VIZ001>002-181300-
U.S. VIRGIN ISLANDS
  
CITY           SKY/WX    TMP DP  RH WIND       PRES   REMARKS
CHARLOTTE AMA  SUNNY     79  66  65 E15G23    30.03R                  
CHRISTIANSTED  MOSUNNY   79  66  65 E13       30.03R                  
$$

HOURLY WEATHER ROUNDUP FOR THE NEWS MEDIA
  
CITY           SKY/WX    TMP DP  RH WIND       PRES   REMARKS
ORLANDO        CLOUDY    61  51  70 N10       30.09R                  
NEW YORK       FAIR      33  18  53 CALM      30.29R                  
NEWARK         FAIR      34  13  41 NW5       30.28R WCI  30          
CHICAGO        FAIR      28  24  85 W5        30.34R WCI  23          
HARTFORD       FAIR      27  20  75 CALM      30.23R                  
BOSTON         FAIR      32  11  41 W14       30.23R WCI  22          
DALLAS         PTCLDY    43  36  76 CALM      30.29R                  
PHILADELPHIA   MOCLDY    35  14  42 NE6       30.30R WCI  30          
LOS ANGELES    PTCLDY    57  51  80 CALM      29.96F                  
WASHINGTON DC  MOCLDY    36  26  67 NE3       30.24S